Location: Unspecified
(49.8670°N, 0.0000°E)
Time: 13:11:54
(UTC+00:00)

ISS - Pass Details

Date: 30 May 2019
Orbit: 407 x 418 km, 51.6° (Epoch: 24 June)

Event Time Altitude Azimuth Distance (km) Brightness Sun altitude
Rises 22:02:44 0° 287° (WNW) 2,359 0.8 -13.9°
Reaches altitude 10° 22:04:59 10° 276° (W) 1,495 -0.5 -14.1°
Maximum altitude 22:07:56 29° 214° (SW) 800 -2.6 -14.3°
Enters shadow 22:08:45 26° 187° (S) 872 -2.6 -14.3°
